Simultaneous Nadir Overpasses (SNOs) Predictions

Prediction of SNOs between NOAA-15 and METOP-C Satellite Orbit:

Table of predicted SNOs for the next 14.0 days since TLE Epoch: 3/23/2024
Index Date (NOAA-15) Time (NOAA-15) Lat,Lon (NOAA-15) SZA (NOAA-15 ) Date (METOP-C) Time (METOP-C) Lat,Lon (METOP-C) SZA (METOP-C ) Distance(km) Time Diff (sec)
1 04/05/2024 21:44:39 -81.08, 71.74 103.62 04/05/2024 21:43:27 -81.07, 71.74 103.66 1.49 72
2 04/05/2024 22:35:13 81.08,-120.90 76.37 04/05/2024 22:34:07 81.07,-120.89 76.34 1.27 66
3 04/05/2024 23:25:39 -81.08, 46.54 103.65 04/05/2024 23:24:48 -81.07, 46.58 103.67 0.84 51
4 04/06/2024 00:16:13 81.08,-146.10 76.35 04/06/2024 00:15:28 81.07,-146.04 76.33 1.05 45
5 04/06/2024 01:06:39 -81.07, 21.34 103.67 04/06/2024 01:06:09 -81.08, 21.43 103.67 1.70 30
6 04/06/2024 01:57:13 81.07,-171.30 76.32 04/06/2024 01:56:49 81.08,-171.19 76.33 2.09 24
7 04/06/2024 02:47:40 -81.09, -4.23 103.71 04/06/2024 02:47:31 -81.07, -4.10 103.72 2.94 9
8 04/06/2024 03:38:14 81.09, 163.13 76.28 04/06/2024 03:38:11 81.08, 163.29 76.28 3.13 3



Historial Predications of SNOs between NOAA-15 and METOP-C
